Flag for U.S.A. Weather past 2 weeks in Springfield, Illinois, U.S.A.

Now
38 °F

Overcast.


Feels Like: 30 °F
Forecast: 34 / 43 °F
Wind: 14 mph from South

Location: Capital Airport

Current Time: Dec 21, 2014 at 11:47:13 AM

Latest Report: Dec 21, 2014 at 10:52 AM


Visibility: 10 mi

Pressure: 30.20 "Hg

Humidity: 76%

Dew point: 31 °F

Location of SpringfieldLocation

Historic Weather in Springfield — Graph

°F

Springfield temperature yesterday

Maximum temperature yesterday: 38 °F (at 12:52 PM)
Minimum temperature yesterday: 31 °F (at 12:52 AM)
Average temperature yesterday: 35 °F

Past Weeks' High & Low Weather Summary

 TemperatureHumidityPressure
High54 °F (Dec 13, 1:52 PM)100% (Dec 14, 5:52 AM)30.63 "Hg (Dec 14, 5:52 AM)
Low21 °F (Dec 17, 6:52 PM)59% (Dec 19, 11:52 AM)29.67 "Hg (Dec 15, 6:52 PM)
Average36 °F82%30.26 "Hg
* Reported Dec 6 9:52 AM — Dec 21 9:52 AM, Springfield, Weather by CustomWeather, © 2014

Note: Actual official high and low records may vary slightly from our data, if they occured in-between our weather recording intervals... More about our weather records

Advertising

Springfield weather history for previous 24 hours

 ConditionsComfort  
Time TempWeatherWind HumidityBarometerVisibility
9:52 AM
Dec 21
38 °FOvercast.14 mph76%30.22 "Hg10 mi
8:52 AM38 °FOvercast.13 mph76%30.21 "Hg10 mi
7:52 AM38 °FOvercast.13 mph76%30.22 "Hg10 mi
6:52 AM38 °FOvercast.10 mph79%30.22 "Hg10 mi
5:52 AM37 °FOvercast.10 mph79%30.22 "Hg10 mi
4:52 AM37 °FOvercast.9 mph79%30.21 "Hg10 mi
3:52 AM37 °FOvercast.9 mph79%30.22 "Hg10 mi
2:52 AM37 °FOvercast.12 mph79%30.23 "Hg10 mi
1:52 AM37 °FOvercast.9 mph79%30.24 "Hg10 mi
12:52 AM37 °FOvercast.13 mph79%30.24 "Hg10 mi
11:52 PM
Dec 20
37 °FOvercast.12 mph79%30.25 "Hg10 mi
10:52 PM37 °FOvercast.10 mph79%30.26 "Hg10 mi
9:52 PM38 °FOvercast.12 mph76%30.26 "Hg10 mi
8:52 PM38 °FOvercast.10 mph76%30.26 "Hg10 mi
7:52 PM38 °FOvercast.9 mph76%30.27 "Hg10 mi
6:52 PM38 °FOvercast.8 mph76%30.27 "Hg10 mi
5:52 PM38 °FOvercast.7 mph76%30.26 "Hg10 mi
4:52 PM38 °FOvercast.8 mph76%30.25 "Hg10 mi
3:52 PM38 °FOvercast.7 mph76%30.25 "Hg10 mi
2:52 PM38 °FOvercast.3 mph73%30.24 "Hg10 mi
1:59 PM38 °FOvercast.7 mph73%30.23 "Hg10 mi
12:52 PM38 °FMostly cloudy.7 mph70%30.26 "Hg10 mi
11:52 AM37 °FMostly cloudy.8 mph70%30.27 "Hg10 mi
Weather by CustomWeather, © 2014

See weather overviewHow to use our weather pages